| time (UTC) | temp F | wind direction | speed MPH | gust MPH | rain 1hr in | rain 24hr in | rain mn in | humidity % | barometer mb |
| 20260505223556 | 33 | 44 | 0.0 | 0.0 | 0.00 | 0.00 | 0.00 | 67 | 1010.1 |
| 20260505223057 | 33 | 44 | 0.0 | 0.0 | 0.00 | 0.00 | 0.00 | 67 | 1010.1 |
| 20260505222556 | 33 | 44 | 0.0 | 0.0 | 0.00 | 0.00 | 0.00 | 67 | 1010.1 |
| 20260505222054 | 33 | 44 | 0.0 | 0.0 | 0.00 | 0.00 | 0.00 | 67 | 1010.1 |
| 20260505221557 | 33 | 44 | 0.0 | 0.0 | 0.00 | 0.00 | 0.00 | 68 | 1010.1 |
| 20260505221050 | 34 | 44 | 0.0 | 0.0 | 0.00 | 0.00 | 0.00 | 66 | 1010.0 |
| 20260505220549 | 34 | 44 | 0.0 | 0.0 | 0.00 | 0.00 | 0.00 | 66 | 1010.0 |
| 20260505220048 | 34 | 44 | 0.0 | 0.0 | 0.00 | 0.00 | 0.00 | 64 | 1010.0 |
| 20260505215534 | 35 | 44 | 0.0 | 0.0 | 0.00 | 0.00 | 0.00 | 64 | 1009.9 |
| 20260505215030 | 35 | 44 | 0.0 | 0.0 | 0.00 | 0.00 | 0.00 | 63 | 1009.8 |
| 20260505214535 | 36 | 44 | 0.0 | 0.0 | 0.00 | 0.00 | 0.00 | 61 | 1009.9 |
| 20260505214032 | 36 | 44 | 0.0 | 0.0 | 0.00 | 0.00 | 0.00 | 60 | 1009.8 |
| 20260505213529 | 36 | 44 | 0.0 | 0.0 | 0.00 | 0.00 | 0.00 | 59 | 1009.8 |
| 20260505213033 | 36 | 44 | 0.0 | 5.0 | 0.00 | 0.00 | 0.00 | 59 | 1009.7 |
| 20260505212529 | 37 | 45 | 0.0 | 5.0 | 0.00 | 0.00 | 0.00 | 57 | 1009.8 |
| 20260505212030 | 36 | 40 | 0.0 | 0.0 | 0.00 | 0.00 | 0.00 | 58 | 1009.8 |
| 20260505211528 | 37 | 40 | 0.0 | 1.0 | 0.00 | 0.00 | 0.00 | 57 | 1009.7 |
| 20260505211028 | 37 | 40 | 0.0 | 1.0 | 0.00 | 0.00 | 0.00 | 57 | 1009.6 |
| 20260505210528 | 37 | 30 | 0.0 | 0.0 | 0.00 | 0.00 | 0.00 | 56 | 1009.6 |
| 20260505210025 | 38 | 46 | 0.0 | 0.0 | 0.00 | 0.00 | 0.00 | 54 | 1009.6 |
| 20260505205526 | 38 | 46 | 0.0 | 0.0 | 0.00 | 0.00 | 0.00 | 54 | 1009.6 |
| 20260505205026 | 38 | 46 | 0.0 | 0.0 | 0.00 | 0.00 | 0.00 | 54 | 1009.6 |
| 20260505204526 | 39 | 46 | 0.0 | 0.0 | 0.00 | 0.00 | 0.00 | 54 | 1009.5 |
| 20260505204023 | 39 | 46 | 0.0 | 0.0 | 0.00 | 0.00 | 0.00 | 51 | 1009.3 |
| 20260505203523 | 39 | 46 | 0.0 | 0.0 | 0.00 | 0.00 | 0.00 | 51 | 1009.2 |
| 20260505203023 | 39 | 355 | 0.0 | 0.0 | 0.00 | 0.00 | 0.00 | 51 | 1009.2 |
| 20260505202524 | 39 | 351 | 0.0 | 0.0 | 0.00 | 0.00 | 0.00 | 51 | 1009.1 |
| 20260505202024 | 39 | 360 | 0.0 | 0.0 | 0.00 | 0.00 | 0.00 | 52 | 1009.1 |
| 20260505201523 | 39 | 19 | 0.0 | 0.0 | 0.00 | 0.00 | 0.00 | 53 | 1009.2 |
| 20260505201023 | 38 | 20 | 0.0 | 0.0 | 0.00 | 0.00 | 0.00 | 55 | 1009.1 |
| 20260505200521 | 38 | 61 | 0.0 | 0.0 | 0.00 | 0.00 | 0.00 | 54 | 1009.1 |
| 20260505200033 | 39 | 9 | 0.0 | 0.0 | 0.00 | 0.00 | 0.00 | 53 | 1009.1 |
| 20260505195519 | 40 | 9 | 0.0 | 0.0 | 0.00 | 0.00 | 0.00 | 51 | 1009.0 |
| 20260505195119 | 41 | 9 | 0.0 | 0.0 | 0.00 | 0.00 | 0.00 | 49 | 1008.9 |
| 20260505194519 | 41 | 9 | 0.0 | 0.0 | 0.00 | 0.00 | 0.00 | 48 | 1008.9 |
| 20260505194018 | 42 | 9 | 0.0 | 0.0 | 0.00 | 0.00 | 0.00 | 46 | 1008.8 |
| 20260505193518 | 43 | 9 | 0.0 | 0.0 | 0.00 | 0.00 | 0.00 | 44 | 1008.8 |
| 20260505193017 | 43 | 9 | 0.0 | 0.0 | 0.00 | 0.00 | 0.00 | 43 | 1008.7 |
| 20260505192516 | 43 | 319 | 0.0 | 4.0 | 0.00 | 0.00 | 0.00 | 43 | 1008.6 |
| 20260505192015 | 43 | 344 | 0.0 | 4.0 | 0.00 | 0.00 | 0.00 | 42 | 1008.5 |
| 20260505191524 | 43 | 17 | 0.0 | 1.0 | 0.00 | 0.00 | 0.00 | 43 | 1008.5 |
| 20260505191014 | 44 | 344 | 0.0 | 1.0 | 0.00 | 0.00 | 0.00 | 42 | 1008.3 |
| 20260505190518 | 44 | 331 | 0.0 | 0.0 | 0.00 | 0.00 | 0.00 | 41 | 1008.2 |
| 20260505190012 | 44 | 329 | 0.0 | 3.0 | 0.00 | 0.00 | 0.00 | 41 | 1008.2 |
| 20260505185512 | 45 | 336 | 0.0 | 4.0 | 0.00 | 0.00 | 0.00 | 40 | 1008.2 |
| 20260505185012 | 45 | 325 | 0.0 | 11.0 | 0.00 | 0.00 | 0.00 | 39 | 1008.1 |
| 20260505184511 | 45 | 335 | 0.0 | 11.0 | 0.00 | 0.00 | 0.00 | 39 | 1008.2 |
| 20260505184010 | 45 | 325 | 0.0 | 2.0 | 0.00 | 0.00 | 0.00 | 38 | 1008.1 |
| 20260505183511 | 46 | 260 | 0.0 | 10.0 | 0.00 | 0.00 | 0.00 | 36 | 1008.0 |
| 20260505183012 | 46 | 312 | 0.0 | 10.0 | 0.00 | 0.00 | 0.00 | 37 | 1008.0 |
| 20260505182511 | 46 | 334 | 0.0 | 2.0 | 0.00 | 0.00 | 0.00 | 38 | 1008.0 |
| 20260505182010 | 46 | 329 | 0.0 | 2.0 | 0.00 | 0.00 | 0.00 | 39 | 1007.9 |
| 20260505181509 | 47 | 346 | 0.0 | 0.0 | 0.00 | 0.00 | 0.00 | 41 | 1007.9 |
| 20260505181008 | 47 | 324 | 0.0 | 1.0 | 0.00 | 0.00 | 0.00 | 39 | 1007.9 |
| 20260505180508 | 47 | 349 | 0.0 | 6.0 | 0.00 | 0.00 | 0.00 | 40 | 1007.8 |
| 20260505180008 | 47 | 337 | 0.0 | 6.0 | 0.00 | 0.00 | 0.00 | 40 | 1007.7 |
| 20260505175510 | 47 | 324 | 0.0 | 8.0 | 0.00 | 0.00 | 0.00 | 41 | 1007.7 |
| 20260505175008 | 48 | 355 | 0.0 | 8.0 | 0.00 | 0.00 | 0.00 | 39 | 1007.6 |
| 20260505174507 | 48 | 278 | 0.0 | 0.0 | 0.00 | 0.00 | 0.00 | 39 | 1007.6 |
| 20260505174010 | 48 | 300 | 0.0 | 2.0 | 0.00 | 0.00 | 0.00 | 39 | 1007.6 |
| 20260505173510 | 48 | 304 | 0.0 | 2.0 | 0.00 | 0.00 | 0.00 | 37 | 1007.5 |
| 20260505173011 | 48 | 299 | 0.0 | 1.0 | 0.00 | 0.00 | 0.00 | 37 | 1007.5 |
| 20260505172507 | 49 | 290 | 0.0 | 0.0 | 0.00 | 0.00 | 0.00 | 38 | 1007.4 |
| 20260505172007 | 49 | 340 | 0.0 | 0.0 | 0.00 | 0.00 | 0.00 | 38 | 1007.4 |
| 20260505171508 | 49 | 270 | 0.0 | 1.0 | 0.00 | 0.00 | 0.00 | 39 | 1007.4 |
| 20260505171007 | 49 | 263 | 0.0 | 1.0 | 0.00 | 0.00 | 0.00 | 39 | 1007.2 |
| 20260505170505 | 49 | 259 | 0.0 | 0.0 | 0.00 | 0.00 | 0.00 | 39 | 1007.3 |
| 20260505170006 | 49 | 259 | 0.0 | 0.0 | 0.00 | 0.00 | 0.00 | 37 | 1007.3 |
| 20260505165505 | 50 | 245 | 0.0 | 0.0 | 0.00 | 0.00 | 0.00 | 37 | 1007.3 |
| 20260505165005 | 51 | 309 | 0.0 | 1.0 | 0.00 | 0.00 | 0.00 | 37 | 1007.3 |
| 20260505164505 | 51 | 250 | 0.0 | 1.0 | 0.00 | 0.00 | 0.00 | 36 | 1007.3 |
| 20260505164004 | 51 | 263 | 0.0 | 1.0 | 0.00 | 0.00 | 0.00 | 35 | 1007.3 |
| 20260505163603 | 52 | 299 | 0.0 | 1.0 | 0.00 | 0.00 | 0.00 | 34 | 1007.4 |
| 20260505163007 | 52 | 277 | 0.0 | 1.0 | 0.00 | 0.00 | 0.00 | 34 | 1007.4 |
| 20260505162503 | 52 | 223 | 0.0 | 1.0 | 0.00 | 0.00 | 0.00 | 34 | 1007.4 |
| 20260505162007 | 52 | 209 | 0.0 | 2.0 | 0.00 | 0.00 | 0.00 | 33 | 1007.4 |
| 20260505161509 | 52 | 268 | 0.0 | 3.0 | 0.00 | 0.00 | 0.00 | 31 | 1007.3 |
| 20260505161002 | 52 | 289 | 0.0 | 2.0 | 0.00 | 0.00 | 0.00 | 32 | 1007.3 |
| 20260505160503 | 52 | 271 | 0.0 | 2.0 | 0.00 | 0.00 | 0.00 | 31 | 1007.3 |
| 20260505153100 | 51 | 238 | 0.0 | 1.0 | 0.00 | 0.00 | 0.00 | 31 | 1007.1 |
| 20260505152601 | 50 | 347 | 0.0 | 0.0 | 0.00 | 0.00 | 0.00 | 30 | 1007.1 |
| 20260505152059 | 51 | 5 | 0.0 | 0.0 | 0.00 | 0.00 | 0.00 | 30 | 1007.0 |
| 20260505151658 | 51 | 313 | 0.0 | 0.0 | 0.00 | 0.00 | 0.00 | 29 | 1007.0 |
| 20260505151057 | 52 | 271 | 0.0 | 0.0 | 0.00 | 0.00 | 0.00 | 29 | 1007.1 |
| 20260505150557 | 51 | 283 | 0.0 | 0.0 | 0.00 | 0.00 | 0.00 | 31 | 1007.0 |
| 20260505150107 | 51 | 320 | 0.0 | 1.0 | 0.00 | 0.00 | 0.00 | 33 | 1007.0 |
| 20260505140550 | 50 | 321 | 0.0 | 5.0 | 0.00 | 0.00 | 0.00 | 31 | 1007.0 |
| 20260505124551 | 52 | 310 | 0.0 | 3.0 | 0.00 | 0.00 | 0.00 | 24 | 1007.3 |
| 20260505124045 | 51 | 271 | 0.0 | 0.0 | 0.00 | 0.00 | 0.00 | 27 | 1007.3 |
| 20260505123546 | 50 | 22 | 0.0 | 14.0 | 0.00 | 0.00 | 0.00 | 25 | 1007.4 |
| 20260505123045 | 51 | 338 | 2.0 | 14.0 | 0.00 | 0.00 | 0.00 | 25 | 1007.6 |
| 20260505122548 | 51 | 324 | 0.0 | 15.0 | 0.00 | 0.00 | 0.00 | 27 | 1007.5 |
| 20260505122045 | 52 | 336 | 2.0 | 15.0 | 0.00 | 0.00 | 0.00 | 28 | 1007.5 |
| 20260505121545 | 51 | 222 | 0.0 | 8.0 | 0.00 | 0.00 | 0.00 | 28 | 1007.5 |
| 20260505121044 | 52 | 292 | 0.0 | 8.0 | 0.00 | 0.00 | 0.00 | 28 | 1007.6 |
| 20260505120543 | 51 | 257 | 0.0 | 0.0 | 0.00 | 0.00 | 0.00 | 29 | 1007.6 |
| 20260505120043 | 51 | 280 | 0.0 | 8.0 | 0.00 | 0.00 | 0.00 | 28 | 1007.5 |
| 20260505115543 | 51 | 348 | 1.0 | 8.0 | 0.00 | 0.00 | 0.00 | 28 | 1007.4 |
| 20260505115042 | 51 | 291 | 0.0 | 7.0 | 0.00 | 0.00 | 0.00 | 30 | 1007.4 |
| 20260505114541 | 50 | 269 | 0.0 | 11.0 | 0.00 | 0.00 | 0.00 | 29 | 1007.5 |
| 20260505114041 | 50 | 262 | 0.0 | 11.0 | 0.00 | 0.00 | 0.00 | 31 | 1007.5 |
| 20260505113538 | 50 | 349 | 0.0 | 7.0 | 0.00 | 0.00 | 0.00 | 27 | 1007.6 |
| 20260505113039 | 51 | 344 | 0.0 | 1.0 | 0.00 | 0.00 | 0.00 | 27 | 1007.6 |
| 20260505112540 | 51 | 248 | 0.0 | 6.0 | 0.00 | 0.00 | 0.00 | 30 | 1007.6 |
| 20260505112039 | 51 | 304 | 0.0 | 8.0 | 0.00 | 0.00 | 0.00 | 33 | 1007.6 |
| 20260505111536 | 51 | 332 | 1.0 | 8.0 | 0.00 | 0.00 | 0.00 | 30 | 1007.6 |
| 20260505111035 | 51 | 306 | 0.0 | 1.0 | 0.00 | 0.00 | 0.00 | 31 | 1007.6 |
| 20260505110535 | 51 | 287 | 0.0 | 3.0 | 0.00 | 0.00 | 0.00 | 31 | 1007.6 |
| 20260505102029 | 50 | 327 | 0.0 | 8.0 | 0.00 | 0.00 | 0.00 | 32 | 1007.7 |
| 20260505101533 | 49 | 290 | 0.0 | 8.0 | 0.00 | 0.00 | 0.00 | 34 | 1007.7 |
| 20260505101026 | 49 | 296 | 0.0 | 8.0 | 0.00 | 0.00 | 0.00 | 33 | 1007.7 |
| 20260505100526 | 50 | 214 | 0.0 | 5.0 | 0.00 | 0.00 | 0.00 | 33 | 1007.7 |
| 20260505100024 | 50 | 283 | 0.0 | 6.0 | 0.00 | 0.00 | 0.00 | 36 | 1007.7 |
| 20260505095522 | 49 | 320 | 0.0 | 7.0 | 0.00 | 0.00 | 0.00 | 37 | 1007.7 |
| 20260505095023 | 49 | 250 | 0.0 | 7.0 | 0.00 | 0.00 | 0.00 | 35 | 1007.7 |
| 20260505094521 | 49 | 243 | 0.0 | 8.0 | 0.00 | 0.00 | 0.00 | 34 | 1007.8 |
| 20260505094021 | 49 | 273 | 0.0 | 7.0 | 0.00 | 0.00 | 0.00 | 35 | 1007.8 |
| 20260505093519 | 49 | 298 | 0.0 | 1.0 | 0.00 | 0.00 | 0.00 | 37 | 1007.7 |
| 20260505093018 | 49 | 298 | 0.0 | 5.0 | 0.00 | 0.00 | 0.00 | 35 | 1007.8 |
| 20260505092517 | 48 | 195 | 1.0 | 5.0 | 0.00 | 0.00 | 0.00 | 38 | 1007.8 |
| 20260505092016 | 48 | 211 | 0.0 | 0.0 | 0.00 | 0.00 | 0.00 | 37 | 1007.8 |
| 20260505091514 | 48 | 312 | 0.0 | 0.0 | 0.00 | 0.00 | 0.00 | 36 | 1007.9 |
| 20260505091013 | 48 | 296 | 0.0 | 0.0 | 0.00 | 0.00 | 0.00 | 33 | 1008.0 |
| 20260505090512 | 47 | 291 | 0.0 | 0.0 | 0.00 | 0.00 | 0.00 | 38 | 1007.9 |
| 20260505090030 | 47 | 278 | 0.0 | 0.0 | 0.00 | 0.00 | 0.00 | 39 | 1008.0 |
| 20260505085512 | 47 | 279 | 0.0 | 0.0 | 0.00 | 0.00 | 0.00 | 34 | 1008.0 |
| 20260505085012 | 48 | 268 | 0.0 | 0.0 | 0.00 | 0.00 | 0.00 | 33 | 1008.0 |
| 20260505084511 | 48 | 238 | 0.0 | 0.0 | 0.00 | 0.00 | 0.00 | 36 | 1008.0 |
| 20260505084010 | 47 | 206 | 0.0 | 0.0 | 0.00 | 0.00 | 0.00 | 39 | 1008.0 |
| 20260505083509 | 47 | 218 | 0.0 | 0.0 | 0.00 | 0.00 | 0.00 | 37 | 1008.0 |
| 20260505083007 | 47 | 267 | 0.0 | 4.0 | 0.00 | 0.00 | 0.00 | 35 | 1008.0 |
| 20260505082510 | 47 | 274 | 0.0 | 3.0 | 0.00 | 0.00 | 0.00 | 39 | 1007.9 |
| 20260505082006 | 47 | 275 | 0.0 | 3.0 | 0.00 | 0.00 | 0.00 | 37 | 1007.9 |
| 20260505081506 | 47 | 247 | 0.0 | 3.0 | 0.00 | 0.00 | 0.00 | 41 | 1007.9 |
| 20260505081003 | 46 | 212 | 0.0 | 0.0 | 0.00 | 0.00 | 0.00 | 40 | 1007.9 |
| 20260505080501 | 46 | 240 | 0.0 | 2.0 | 0.00 | 0.00 | 0.00 | 40 | 1007.8 |
| 20260505080100 | 45 | 210 | 0.0 | 2.0 | 0.00 | 0.00 | 0.00 | 38 | 1007.9 |
| 20260505075558 | 45 | 285 | 0.0 | 6.0 | 0.00 | 0.00 | 0.00 | 38 | 1007.8 |
| 20260505075057 | 45 | 209 | 0.0 | 6.0 | 0.00 | 0.00 | 0.00 | 40 | 1007.9 |
| 20260505074557 | 45 | 360 | 0.0 | 15.0 | 0.00 | 0.00 | 0.00 | 42 | 1007.9 |
| 20260505074059 | 45 | 324 | 4.0 | 15.0 | 0.00 | 0.00 | 0.00 | 39 | 1008.0 |
| 20260505073555 | 45 | 341 | 2.0 | 6.0 | 0.00 | 0.00 | 0.00 | 39 | 1008.0 |
| 20260505073053 | 45 | 312 | 0.0 | 13.0 | 0.00 | 0.00 | 0.00 | 41 | 1007.9 |
| 20260505072554 | 44 | 211 | 2.0 | 13.0 | 0.00 | 0.00 | 0.00 | 40 | 1007.9 |
| 20260505072050 | 44 | 331 | 2.0 | 12.0 | 0.00 | 0.00 | 0.00 | 41 | 1007.9 |
| 20260505071551 | 44 | 338 | 0.0 | 0.0 | 0.00 | 0.00 | 0.00 | 43 | 1007.8 |
| 20260505071047 | 44 | 335 | 0.0 | 12.0 | 0.00 | 0.00 | 0.00 | 43 | 1007.8 |
| 20260505070546 | 44 | 349 | 0.0 | 12.0 | 0.00 | 0.00 | 0.00 | 42 | 1007.7 |
| 20260505070044 | 44 | 325 | 0.0 | 4.0 | 0.00 | 0.00 | 0.00 | 42 | 1007.7 |
| 20260505065544 | 44 | 340 | 0.0 | 7.0 | 0.00 | 0.00 | 0.00 | 44 | 1007.7 |
| 20260505065041 | 44 | 284 | 1.0 | 7.0 | 0.00 | 0.00 | 0.00 | 45 | 1007.7 |
| 20260505064543 | 43 | 323 | 0.0 | 0.0 | 0.00 | 0.00 | 0.00 | 49 | 1007.7 |
| 20260505064039 | 43 | 329 | 0.0 | 0.0 | 0.00 | 0.00 | 0.00 | 44 | 1007.7 |
| 20260505063537 | 43 | 343 | 0.0 | 0.0 | 0.00 | 0.00 | 0.00 | 48 | 1007.7 |
| 20260505063039 | 42 | 300 | 0.0 | 0.0 | 0.00 | 0.00 | 0.00 | 47 | 1007.7 |
| 20260505062536 | 42 | 238 | 0.0 | 0.0 | 0.00 | 0.00 | 0.00 | 51 | 1007.7 |
| 20260505062032 | 41 | 215 | 0.0 | 0.0 | 0.00 | 0.00 | 0.00 | 53 | 1007.7 |
| 20260505061534 | 40 | 5 | 0.0 | 0.0 | 0.00 | 0.00 | 0.00 | 55 | 1007.6 |
| 20260505061029 | 38 | 32 | 0.0 | 0.0 | 0.00 | 0.00 | 0.00 | 59 | 1007.7 |
| 20260505060528 | 38 | 5 | 0.0 | 0.0 | 0.00 | 0.00 | 0.00 | 59 | 1007.7 |
| 20260505060034 | 36 | 320 | 0.0 | 0.0 | 0.00 | 0.00 | 0.00 | 60 | 1007.7 |
| 20260505055525 | 35 | 19 | 0.0 | 0.0 | 0.00 | 0.00 | 0.00 | 60 | 1007.7 |
| 20260505055026 | 34 | 32 | 0.0 | 0.0 | 0.00 | 0.00 | 0.00 | 65 | 1007.8 |
| 20260505054524 | 34 | 32 | 0.0 | 0.0 | 0.00 | 0.00 | 0.00 | 64 | 1007.7 |
| 20260505054024 | 34 | 32 | 0.0 | 0.0 | 0.00 | 0.00 | 0.00 | 64 | 1007.8 |
| 20260505053523 | 34 | 32 | 0.0 | 0.0 | 0.00 | 0.00 | 0.00 | 64 | 1007.7 |
| 20260505053026 | 35 | 32 | 0.0 | 0.0 | 0.00 | 0.00 | 0.00 | 63 | 1007.7 |
| 20260505052522 | 34 | 32 | 0.0 | 0.0 | 0.00 | 0.00 | 0.00 | 62 | 1007.7 |
| 20260505052022 | 34 | 26 | 0.0 | 0.0 | 0.00 | 0.00 | 0.00 | 64 | 1007.7 |
| 20260505051522 | 34 | 90 | 0.0 | 0.0 | 0.00 | 0.00 | 0.00 | 65 | 1007.7 |
| 20260505051021 | 34 | 85 | 0.0 | 0.0 | 0.00 | 0.00 | 0.00 | 64 | 1007.8 |
| 20260505050519 | 33 | 329 | 0.0 | 0.0 | 0.00 | 0.00 | 0.00 | 65 | 1007.8 |
| 20260505041514 | 31 | 70 | 0.0 | 0.0 | 0.00 | 0.00 | 0.00 | 71 | 1007.5 |
| 20260505041013 | 31 | 70 | 0.0 | 0.0 | 0.00 | 0.00 | 0.00 | 70 | 1007.5 |
| 20260505040513 | 31 | 70 | 0.0 | 0.0 | 0.00 | 0.00 | 0.00 | 71 | 1007.5 |
| 20260505040012 | 31 | 70 | 0.0 | 0.0 | 0.00 | 0.00 | 0.00 | 71 | 1007.5 |
| 20260505035514 | 31 | 70 | 0.0 | 0.0 | 0.00 | 0.00 | 0.00 | 70 | 1007.4 |
| 20260505035017 | 31 | 70 | 0.0 | 0.0 | 0.00 | 0.00 | 0.00 | 69 | 1007.4 |
| 20260505034510 | 31 | 70 | 0.0 | 0.0 | 0.00 | 0.00 | 0.00 | 69 | 1007.4 |
| 20260505034009 | 31 | 70 | 0.0 | 0.0 | 0.00 | 0.00 | 0.00 | 68 | 1007.3 |
| 20260505033513 | 31 | 70 | 0.0 | 0.0 | 0.00 | 0.00 | 0.00 | 69 | 1007.3 |
| 20260505033008 | 31 | 75 | 0.0 | 0.0 | 0.00 | 0.00 | 0.00 | 70 | 1007.3 |
| 20260505032507 | 31 | 13 | 0.0 | 0.0 | 0.00 | 0.00 | 0.00 | 69 | 1007.3 |
| 20260505032006 | 32 | 5 | 0.0 | 0.0 | 0.00 | 0.00 | 0.00 | 69 | 1007.1 |
| 20260505031506 | 32 | 346 | 0.0 | 0.0 | 0.00 | 0.00 | 0.00 | 69 | 1007.2 |
| 20260505031003 | 32 | 322 | 0.0 | 0.0 | 0.00 | 0.00 | 0.00 | 67 | 1007.1 |
| 20260505030502 | 32 | 84 | 0.0 | 0.0 | 0.00 | 0.00 | 0.00 | 67 | 1007.1 |
| 20260505025600 | 33 | 84 | 0.0 | 0.0 | 0.00 | 0.00 | 0.00 | 66 | 1007.0 |
| 20260505025055 | 33 | 86 | 0.0 | 0.0 | 0.00 | 0.00 | 0.00 | 65 | 1007.1 |
| 20260505024555 | 33 | 86 | 0.0 | 0.0 | 0.00 | 0.00 | 0.00 | 66 | 1007.1 |
| 20260505024054 | 33 | 344 | 0.0 | 0.0 | 0.00 | 0.00 | 0.00 | 64 | 1007.0 |
| 20260505023552 | 34 | 344 | 0.0 | 0.0 | 0.00 | 0.00 | 0.00 | 63 | 1007.0 |
| 20260505023052 | 35 | 285 | 0.0 | 0.0 | 0.00 | 0.00 | 0.00 | 62 | 1007.0 |
| 20260505022552 | 35 | 285 | 0.0 | 0.0 | 0.00 | 0.00 | 0.00 | 60 | 1007.1 |
| 20260505022049 | 35 | 42 | 0.0 | 0.0 | 0.00 | 0.00 | 0.00 | 61 | 1007.0 |
| 20260505021549 | 36 | 348 | 0.0 | 0.0 | 0.00 | 0.00 | 0.00 | 57 | 1007.0 |
| 20260505021147 | 36 | 18 | 0.0 | 0.0 | 0.00 | 0.00 | 0.00 | 56 | 1007.0 |
| 20260505020550 | 36 | 56 | 0.0 | 0.0 | 0.00 | 0.00 | 0.00 | 56 | 1006.9 |
| 20260505020048 | 36 | 46 | 0.0 | 0.0 | 0.00 | 0.00 | 0.00 | 56 | 1006.9 |
| 20260505015545 | 37 | 46 | 0.0 | 0.0 | 0.00 | 0.00 | 0.00 | 54 | 1006.9 |
| 20260505015044 | 37 | 344 | 0.0 | 0.0 | 0.00 | 0.00 | 0.00 | 54 | 1006.9 |
| 20260505014600 | 38 | 331 | 0.0 | 0.0 | 0.00 | 0.00 | 0.00 | 52 | 1006.8 |
| 20260505014046 | 38 | 5 | 0.0 | 0.0 | 0.00 | 0.00 | 0.00 | 50 | 1006.8 |
| 20260505013541 | 39 | 9 | 0.0 | 10.0 | 0.00 | 0.00 | 0.00 | 50 | 1006.7 |
| 20260505013042 | 39 | 9 | 2.0 | 10.0 | 0.00 | 0.00 | 0.00 | 50 | 1006.7 |
| 20260505012540 | 39 | 5 | 3.0 | 10.0 | 0.00 | 0.00 | 0.00 | 49 | 1006.6 |
| 20260505012043 | 39 | 42 | 0.0 | 0.0 | 0.00 | 0.00 | 0.00 | 49 | 1006.5 |
| 20260505011548 | 39 | 12 | 0.0 | 12.0 | 0.00 | 0.00 | 0.00 | 50 | 1006.5 |
| 20260505011039 | 38 | 344 | 3.0 | 13.0 | 0.00 | 0.00 | 0.00 | 50 | 1006.4 |
| 20260505010540 | 37 | 336 | 0.0 | 1.0 | 0.00 | 0.00 | 0.00 | 52 | 1006.4 |
| 20260505010037 | 37 | 29 | 0.0 | 1.0 | 0.00 | 0.00 | 0.00 | 55 | 1006.5 |
| 20260505005535 | 37 | 33 | 0.0 | 0.0 | 0.00 | 0.00 | 0.00 | 55 | 1006.4 |
| 20260505005035 | 38 | 37 | 0.0 | 0.0 | 0.00 | 0.00 | 0.00 | 53 | 1006.4 |
| 20260505004535 | 38 | 38 | 0.0 | 0.0 | 0.00 | 0.00 | 0.00 | 52 | 1006.4 |
| 20260505004033 | 38 | 32 | 0.0 | 4.0 | 0.00 | 0.00 | 0.00 | 53 | 1006.4 |
| 20260505003535 | 38 | 37 | 0.0 | 4.0 | 0.00 | 0.00 | 0.00 | 53 | 1006.4 |
| 20260505003032 | 38 | 27 | 0.0 | 0.0 | 0.00 | 0.00 | 0.00 | 52 | 1006.4 |
| 20260505002533 | 38 | 355 | 0.0 | 0.0 | 0.00 | 0.00 | 0.00 | 52 | 1006.4 |
| 20260505002030 | 39 | 18 | 0.0 | 0.0 | 0.00 | 0.00 | 0.00 | 51 | 1006.3 |
| 20260505001530 | 39 | 9 | 0.0 | 0.0 | 0.00 | 0.00 | 0.00 | 51 | 1006.3 |
| 20260505001027 | 39 | 334 | 0.0 | 8.0 | 0.00 | 0.00 | 0.00 | 50 | 1006.3 |
| 20260505000525 | 39 | 329 | 1.0 | 8.0 | 0.00 | 0.00 | 0.00 | 50 | 1006.2 |
| 20260505000025 | 39 | 307 | 0.0 | 4.0 | 0.00 | 0.00 | 0.00 | 50 | 1006.1 |
| 20260504235524 | 40 | 360 | 0.0 | 4.0 | 0.00 | 0.00 | 0.00 | 50 | 1006.1 |
| 20260504235024 | 40 | 360 | 0.0 | 0.0 | 0.00 | 0.00 | 0.00 | 50 | 1006.1 |
| 20260504234522 | 40 | 324 | 0.0 | 0.0 | 0.00 | 0.00 | 0.00 | 50 | 1006.1 |
| 20260504234022 | 40 | 340 | 0.0 | 0.0 | 0.00 | 0.00 | 0.00 | 49 | 1006.0 |
| 20260504233521 | 40 | 355 | 0.0 | 0.0 | 0.00 | 0.00 | 0.00 | 50 | 1006.0 |
| 20260504233024 | 40 | 350 | 0.0 | 0.0 | 0.00 | 0.00 | 0.00 | 50 | 1006.0 |
| 20260504232520 | 40 | 5 | 0.0 | 0.0 | 0.00 | 0.00 | 0.00 | 50 | 1006.0 |
| 20260504232121 | 40 | 12 | 0.0 | 0.0 | 0.00 | 0.00 | 0.00 | 49 | 1006.1 |
| 20260504231519 | 40 | 340 | 0.0 | 0.0 | 0.00 | 0.00 | 0.00 | 49 | 1006.1 |
| 20260504231018 | 40 | 55 | 0.0 | 0.0 | 0.00 | 0.00 | 0.00 | 48 | 1006.1 |
| 20260504230517 | 40 | 43 | 0.0 | 0.0 | 0.00 | 0.00 | 0.00 | 47 | 1005.9 |
| 20260504230017 | 41 | 42 | 0.0 | 0.0 | 0.00 | 0.00 | 0.00 | 47 | 1005.9 |
| 20260504225515 | 41 | 15 | 0.0 | 0.0 | 0.00 | 0.00 | 0.00 | 46 | 1005.8 |
| 20260504225014 | 41 | 14 | 0.0 | 0.0 | 0.00 | 0.00 | 0.00 | 46 | 1005.8 |
| 20260504224514 | 41 | 355 | 0.0 | 0.0 | 0.00 | 0.00 | 0.00 | 46 | 1005.7 |
| 20260504224012 | 41 | 295 | 0.0 | 0.0 | 0.00 | 0.00 | 0.00 | 46 | 1005.6 |